Weather History for Farmington, MO

Change the Weather History Date:

Tuesday, February 26, 2013

  Actual Average Record
Temperature  
Mean Temperature 38 °F -  
Max Temperature 44 °F 46 °F 66 °F (2009)
Min Temperature 33 °F 29 °F 12 °F (2014)
Degree Days  
Heating Degree Days 26    
Moisture  
Dew Point 34 °F    
Average Humidity 86    
Maximum Humidity 100    
Minimum Humidity 70    
Precipitation  
Precipitation 0.30 in - - ()
Sea Level Pressure  
Sea Level Pressure 29.44 in    
Wind  
Wind Speed 12 mph (WSW)    
Max Wind Speed 18 mph    
Max Gust Speed 24 mph    
Visibility 8 miles    
Events      
Averages and records for this station are not official NWS values.
T = Trace of Precipitation, MM = Missing Value Source: NWS Daily Summary

Daily Weather History Graph

Daily Weather History Graph

Search for Another Location

Airport:

Trip Planner

Search our weather history database for the weather conditions in past years. The results will help you decide how hot, cold, wet, or windy it might be!

Date:

Astronomy

Feb. 26, 2013 Rise Set
Actual Time 6:36 AM CST 5:52 PM CST
Civil Twilight 6:10 AM CST 6:19 PM CST
Nautical Twilight 5:40 AM CST 6:49 PM CST
Astronomical Twilight 5:09 AM CST 7:19 PM CST
Moon 7:06 PM CST (2/26) 6:41 AM CST (2/26)
Length of Visible Light 12h 08m
Length of Day
11h 15m
Full, 99% of the Moon is Illuminated
Feb 26
Full
Mar 4
Last Quarter
Mar 11
New
Mar 19
First Quarter
Mar 27
Full

Hourly Weather History & Observations

Time (CST) Temp. Windchill Dew Point Humidity Pressure Visibility Wind Dir Wind Speed Gust Speed Precip Events Conditions
12:15 AM 35.6 °F 26.2 °F 32.0 °F 87% 29.51 in 3.0 mi NE 15.0 mph - 0.05 in   Overcast
12:35 AM 35.6 °F 26.6 °F 33.8 °F 93% 29.49 in 5.0 mi NE 13.8 mph 21.9 mph 0.11 in   Overcast
12:55 AM 35.6 °F 25.2 °F 32.0 °F 87% 29.47 in 4.0 mi ENE 18.4 mph 24.2 mph 0.17 in   Overcast
1:15 AM 35.6 °F 25.9 °F 33.8 °F 93% 29.46 in 4.0 mi NE 16.1 mph - 0.06 in   Overcast
1:35 AM 35.6 °F 25.2 °F 33.8 °F 93% 29.45 in 5.0 mi NE 18.4 mph 23.0 mph 0.08 in   Overcast
1:55 AM 35.6 °F 26.2 °F 33.8 °F 93% 29.42 in 3.0 mi ENE 15.0 mph 21.9 mph 0.08 in   Overcast
2:15 AM 35.6 °F 25.5 °F 33.8 °F 93% 29.40 in 2.5 mi NE 17.3 mph 21.9 mph N/A   Overcast
2:35 AM 35.6 °F 26.6 °F 33.8 °F 93% 29.38 in 3.0 mi NE 13.8 mph 24.2 mph 0.02 in   Overcast
2:55 AM 35.6 °F 27.5 °F 33.8 °F 93% 29.38 in 8.0 mi NE 11.5 mph 16.1 mph 0.02 in   Overcast
3:15 AM 35.6 °F 27.1 °F 33.8 °F 93% 29.37 in 8.0 mi ENE 12.7 mph 17.3 mph N/A   Overcast
3:35 AM 35.6 °F 27.5 °F 33.8 °F 93% 29.37 in 2.5 mi ENE 11.5 mph 17.3 mph 0.01 in   Overcast
3:55 AM 35.6 °F 28.0 °F 33.8 °F 93% 29.36 in 3.0 mi NE 10.4 mph 16.1 mph 0.02 in   Overcast
4:15 AM 35.6 °F 27.5 °F 33.8 °F 93% 29.34 in 4.0 mi ENE 11.5 mph 19.6 mph N/A   Overcast
4:35 AM 35.6 °F 26.6 °F 33.8 °F 93% 29.33 in 10.0 mi NE 13.8 mph - N/A   Overcast
4:55 AM 35.6 °F 27.5 °F 33.8 °F 93% 29.32 in 8.0 mi ENE 11.5 mph - N/A   Overcast
5:15 AM 37.4 °F 29.8 °F 33.8 °F 87% 29.32 in 5.0 mi ENE 11.5 mph - N/A   Overcast
5:35 AM 37.4 °F 29.8 °F 35.6 °F 93% 29.31 in 3.0 mi ENE 11.5 mph 16.1 mph N/A   Overcast
5:55 AM 37.4 °F 30.8 °F 35.6 °F 93% 29.31 in 1.0 mi ENE 9.2 mph - N/A   Overcast
6:15 AM 37.4 °F 31.4 °F 35.6 °F 93% 29.31 in 0.5 mi ENE 8.1 mph - N/A   Overcast
6:35 AM 37.4 °F 31.4 °F 35.6 °F 93% 29.30 in 0.5 mi ENE 8.1 mph - N/A   Overcast
6:55 AM 37.4 °F 32.1 °F 35.6 °F 93% 29.30 in 0.2 mi East 6.9 mph - N/A   Overcast
7:15 AM 37.4 °F 33.8 °F 37.4 °F 100% 29.31 in 0.2 mi East 4.6 mph - N/A   Overcast
7:35 AM 37.4 °F 31.4 °F 37.4 °F 100% 29.31 in 0.2 mi ENE 8.1 mph - N/A   Overcast
7:55 AM 37.4 °F 31.4 °F 37.4 °F 100% 29.31 in 0.2 mi East 8.1 mph - N/A   Overcast
8:15 AM 39.2 °F 33.6 °F 37.4 °F 93% 29.32 in 0.2 mi East 8.1 mph - N/A   Overcast
8:35 AM 39.2 °F 33.6 °F 37.4 °F 93% 29.33 in 0.8 mi SE 8.1 mph - 0.01 in   Overcast
9:15 AM 41.0 °F 34.7 °F 39.2 °F 93% 29.33 in 10.0 mi South 10.4 mph - N/A   Overcast
9:35 AM 41.0 °F 32.5 °F 39.2 °F 93% 29.34 in 10.0 mi SSE 17.3 mph 20.7 mph N/A   Overcast
9:55 AM 41.0 °F 35.2 °F 37.4 °F 87% 29.35 in 10.0 mi South 9.2 mph - N/A   Overcast
10:15 AM 42.8 °F 37.0 °F 37.4 °F 81% 29.35 in 10.0 mi South 10.4 mph - N/A   Overcast
10:35 AM 42.8 °F 37.0 °F 37.4 °F 81% 29.35 in 10.0 mi South 10.4 mph - N/A   Overcast
10:55 AM 41.0 °F 34.3 °F 37.4 °F 87% 29.36 in 10.0 mi South 11.5 mph - N/A   Overcast
11:15 AM 42.8 °F 36.6 °F 37.4 °F 81% 29.37 in 10.0 mi South 11.5 mph 18.4 mph N/A   Overcast
11:35 AM 42.8 °F 35.1 °F 37.4 °F 81% 29.37 in 10.0 mi SSE 16.1 mph - N/A   Overcast
11:55 AM 42.8 °F 37.0 °F 35.6 °F 76% 29.37 in 10.0 mi South 10.4 mph - N/A   Overcast
12:15 PM 42.8 °F 36.6 °F 35.6 °F 76% 29.37 in 10.0 mi South 11.5 mph - N/A   Overcast
12:35 PM 42.8 °F 36.6 °F 35.6 °F 76% 29.37 in 10.0 mi SW 11.5 mph - N/A   Overcast
12:55 PM 44.6 °F 38.8 °F 35.6 °F 71% 29.37 in 10.0 mi SSW 11.5 mph - N/A   Overcast
1:15 PM 44.6 °F 38.4 °F 35.6 °F 71% 29.38 in 10.0 mi SW 12.7 mph - N/A   Overcast
1:35 PM 42.8 °F 37.0 °F 33.8 °F 70% 29.38 in 10.0 mi SW 10.4 mph - N/A   Overcast
1:55 PM 42.8 °F 40.1 °F 33.8 °F 70% 29.39 in 10.0 mi WSW 4.6 mph - N/A   Overcast
2:15 PM 42.8 °F 39.3 °F 33.8 °F 70% 29.40 in 10.0 mi West 5.8 mph - N/A   Overcast
2:35 PM 41.0 °F 34.3 °F 33.8 °F 76% 29.41 in 10.0 mi WSW 11.5 mph 16.1 mph N/A   Overcast
2:55 PM 39.2 °F 33.6 °F 33.8 °F 81% 29.42 in 10.0 mi WSW 8.1 mph - N/A   Overcast
3:15 PM 39.2 °F 35.0 °F 33.8 °F 81% 29.43 in 10.0 mi West 5.8 mph - N/A   Overcast
3:35 PM 39.2 °F 31.6 °F 33.8 °F 81% 29.44 in 10.0 mi West 12.7 mph 18.4 mph N/A   Overcast
3:55 PM 37.4 °F 31.4 °F 33.8 °F 87% 29.45 in 10.0 mi WSW 8.1 mph 16.1 mph N/A   Overcast
4:15 PM 37.4 °F 30.8 °F 33.8 °F 87% 29.47 in 10.0 mi WSW 9.2 mph 17.3 mph N/A   Overcast
4:35 PM 37.4 °F 30.3 °F 33.8 °F 87% 29.48 in 10.0 mi West 10.4 mph - N/A   Overcast
4:55 PM 35.6 °F 27.5 °F 33.8 °F 93% 29.49 in 10.0 mi WSW 11.5 mph 18.4 mph N/A   Overcast
5:15 PM 35.6 °F 29.2 °F 32.0 °F 87% 29.50 in 10.0 mi West 8.1 mph - N/A   Overcast
5:35 PM 35.6 °F 27.5 °F 32.0 °F 87% 29.51 in 10.0 mi West 11.5 mph 18.4 mph N/A   Overcast
5:55 PM 35.6 °F 27.5 °F 32.0 °F 87% 29.53 in 10.0 mi West 11.5 mph 17.3 mph N/A   Overcast
6:15 PM 35.6 °F 27.5 °F 32.0 °F 87% 29.54 in 10.0 mi West 11.5 mph 16.1 mph N/A   Overcast
6:35 PM 35.6 °F 28.6 °F 30.2 °F 81% 29.56 in 10.0 mi West 9.2 mph - N/A   Overcast
6:55 PM 35.6 °F 28.6 °F 32.0 °F 87% 29.57 in 10.0 mi West 9.2 mph - N/A   Overcast
7:15 PM 35.6 °F 27.1 °F 30.2 °F 81% 29.58 in 10.0 mi West 12.7 mph 18.4 mph N/A   Overcast
7:35 PM 35.6 °F 28.6 °F 30.2 °F 81% 29.59 in 10.0 mi West 9.2 mph 18.4 mph N/A   Overcast
7:55 PM 35.6 °F 27.5 °F 30.2 °F 81% 29.60 in 10.0 mi WNW 11.5 mph 16.1 mph N/A   Overcast
8:15 PM 35.6 °F 28.0 °F 30.2 °F 81% 29.61 in 10.0 mi West 10.4 mph - N/A   Overcast
8:35 PM 35.6 °F 29.2 °F 30.2 °F 81% 29.62 in 10.0 mi West 8.1 mph - N/A   Overcast
9:15 PM 35.6 °F 28.0 °F 30.2 °F 81% 29.64 in 10.0 mi West 10.4 mph - N/A   Overcast
9:35 PM 35.6 °F 28.0 °F 30.2 °F 81% 29.65 in 10.0 mi West 10.4 mph 16.1 mph N/A   Overcast
9:55 PM 33.8 °F 26.4 °F 30.2 °F 87% 29.66 in 10.0 mi West 9.2 mph 17.3 mph N/A   Overcast
10:15 PM 33.8 °F 25.8 °F 30.2 °F 87% 29.67 in 10.0 mi West 10.4 mph 18.4 mph N/A   Overcast
10:55 PM 33.8 °F 24.3 °F 28.4 °F 81% 29.69 in 10.0 mi West 13.8 mph - N/A   Overcast
11:15 PM 33.8 °F 25.3 °F 30.2 °F 87% 29.69 in 10.0 mi West 11.5 mph 21.9 mph N/A   Overcast
11:35 PM 33.8 °F 25.8 °F 28.4 °F 81% 29.69 in 10.0 mi WNW 10.4 mph 18.4 mph N/A   Overcast
11:55 PM 33.8 °F 25.3 °F 28.4 °F 81% 29.69 in 10.0 mi West 11.5 mph - N/A   Overcast